Home   Weather   Albany   Past weeks
Flag for USA

Past Weather in Albany, New York, USA — Yesterday and Last 2 Weeks

Now
82 °F

Passing clouds.


Feels Like: 82 °F
Forecast: 85 / 64 °F
Wind: 5 mph from Southwest

Location: Albany County Airport

Current Time: Aug 20, 2019 at 12:22:37 pm

Latest Report: Aug 20, 2019 at 11:51 am


Visibility: 10 mi

Pressure: 30.11 "Hg

Humidity: 43%

Dew Point: 57 °F

Location of AlbanyLocation

Past Weather in Albany — Graph

°F

Albany Temperature Yesterday

Maximum temperature yesterday: 85 °F (at 3:51 pm)
Minimum temperature yesterday: 69 °F (at 2:51 am)
Average temperature yesterday: 75 °F

High & Low Weather Summary for the Past Weeks

 TemperatureHumidityPressure
High87 °F (Aug 17, 2:51 pm)93% (Aug 18, 2:51 am)30.12 "Hg (Aug 18, 2:51 am)
Low55 °F (Aug 11, 5:51 am)33% (Aug 5, 4:51 pm)29.62 "Hg (Aug 8, 2:51 pm)
Average72 °F71%29.89 "Hg
* Reported Aug 5 10:51 am — Aug 20 10:51 am, Albany. Weather by CustomWeather, © 2019

Note: Actual official high and low records may vary slightly from our data, if they occured in-between our weather recording intervals... More about our weather records

Advertising

Albany Weather History for the Previous 24 Hours

Scroll right to see more
 ConditionsComfort  
Time TempWeatherWind HumidityBarometerVisibility
10:51 am
Tue, Aug 20
78 °FPassing clouds.No wind46%30.11 "Hg10 mi
9:51 am77 °FPassing clouds.5 mph54%30.11 "Hg10 mi
8:51 am74 °FPassing clouds.No wind64%30.12 "Hg10 mi
7:51 am70 °FPassing clouds.No wind76%30.11 "Hg10 mi
6:51 am65 °FPassing clouds.No wind87%30.09 "Hg10 mi
5:51 am64 °FPassing clouds.No wind87%30.08 "Hg10 mi
4:51 am66 °FClear.No wind84%30.06 "Hg10 mi
3:51 am68 °FClear.No wind76%30.06 "Hg10 mi
2:51 am68 °FClear.5 mph78%30.06 "Hg10 mi
1:51 am71 °FPassing clouds.6 mph71%30.05 "Hg10 mi
12:51 am72 °FPartly cloudy.6 mph76%30.05 "Hg10 mi
11:51 pm
Mon, Aug 19
73 °FPassing clouds.No wind76%30.03 "Hg10 mi
10:51 pm73 °FPassing clouds.5 mph76%30.02 "Hg10 mi
9:51 pm77 °FPassing clouds.5 mph66%30.01 "Hg10 mi
8:51 pm78 °FPassing clouds.7 mph66%29.98 "Hg10 mi
7:51 pm81 °FPassing clouds.8 mph62%29.96 "Hg10 mi
6:51 pm83 °FScattered clouds.5 mph59%29.93 "Hg10 mi
5:51 pm84 °FScattered clouds.6 mph57%29.91 "Hg10 mi
4:51 pm85 °FScattered clouds.9 mph53%29.93 "Hg10 mi
3:51 pm85 °FBroken clouds.7 mph55%29.94 "Hg10 mi
2:51 pm83 °FPartly sunny.7 mph61%29.96 "Hg10 mi
1:51 pm82 °FPartly sunny.5 mph65%29.98 "Hg10 mi
12:51 pm82 °FBroken clouds.7 mph65%29.97 "Hg10 mi
Weather by CustomWeather, © 2019

See weather overview